Вернуться в каталог

TIANQI 33

АктивенСвязьLEO
NORAD 62365·PAYLOAD·🇨🇳 China

Запущен Dec 19, 2024 с Yellow Sea Launch Area

Loading…

Ближайшие Пролёты (ближайшие 24 часа)

TLE

СвежийSource: Space-Track

Эпоха: Sep 14, 2026, 11:43 UTC

1 62365U 24245A   26257.48823991 -.00000026  00000-0  70588-4 0  9996
2 62365  44.9833 284.6716 0005736  72.9242 287.2219 13.99232209 88867

Отслеживайте TIANQI 33 в реальном времени с AllMySat

Download on the App Store